Location: Ferchesar
(52.6477°N, 12.4298°E)
Time: 20:46:07
(UTC+02:00)

Transit 4A - Pass Details

Date: 05 March 2021
Orbit: 868 x 976 km, 66.8° (Epoch: 10 April)

Event Time Altitude Azimuth Distance (km) Brightness Sun altitude
Rises 14:19:10 0° 292° (WNW) 3,642 11.1 26.4°
Reaches altitude 10° 14:22:25 10° 308° (NW) 2,679 10.3 26.2°
Maximum altitude 14:27:07 22° 357° (N) 1,942 9.3 25.8°
Drops below altitude 10° 14:31:44 10° 47° (NE) 2,623 9.8 25.4°
Sets 14:34:53 0° 63° (ENE) 3,545 10.4 25.1°
